Location: Unspecified
(50.1700°N, 6.8600°E)
Time: 16:49:54
(UTC+00:00)

Cosmos 2263 - Pass Details

Date: 24 January 2019
Orbit: 832 x 865 km, 70.9° (Epoch: 18 February)

Event Time Altitude Azimuth Distance (km) Brightness Sun altitude
Exits shadow 04:13:06 74° 46° (NE) 872 4.2 -29.2°
Drops below altitude 10° 04:18:12 10° 30° (NNE) 2,451 7.0 -28.4°
Sets 04:20:38 0° 30° (NNE) 3,390 7.8 -28.0°
